www.pogodaiklimat.ru
ПОГОДА в Пуэрто-Санта-Крусе

Архив погоды в Пуэрто-Санта-Крусе (Аргентина)

Время
(UTC), дата
12 6.04
13 6.04
14 6.04
15 6.04
16 6.04
17 6.04
18 6.04
00 7.04
12 7.04
13 7.04
14 7.04
15 7.04
16 7.04
17 7.04
18 7.04
00 8.04
12 8.04
13 8.04
14 8.04
15 8.04
16 8.04
17 8.04
18 8.04
00 9.04
12 9.04
13 9.04
14 9.04
15 9.04
16 9.04
17 9.04
18 9.04
00 10.04
12 10.04
13 10.04
14 10.04
15 10.04
16 10.04
17 10.04
18 10.04
00 11.04
12 11.04
13 11.04
14 11.04
15 11.04
16 11.04
17 11.04
18 11.04
00 12.04
12 12.04
13 12.04
14 12.04
15 12.04
16 12.04
17 12.04
18 12.04
00 13.04
Ветер
(напр.,м/с)
Видим. Явления Облачность Т
(С)
Тd
(С)
f
(%)
Тe
(С)
Тes
(С)
Комфортность P
(гПа)
Po
(гПа)
Тmin
(С)
Tmax
(С)
R
(мм)
R24
(мм)
S
(см)
С 10 30 км 6/4 900 м
[Frnb Ac und Cs]
+14.9 986.8 978.0 +14.1 +16.4
С 10 10 км осадки на расстоянии 6/4 900 м
[Frnb Ac und Cs]
+16.3 987.2 974.2
ЮЗ 14 10 км в посл. час дождь туман 10/5 900 м
[Frnb As op Cs]
+13.5 988.4 975.4
ЮЗ 15 4500 м слаб. дождь 10/6 540 м
[St As op]
+8.8 990.9 977.8
ЮЗ 13 10 км осадки на расстоянии {дождь} 9/5 50 м
[Sc As op Cs]
+9.2 992.4 979.3
ЮЗ 9 10 км осадки на расстоянии 9/5 600 м
[Sc As op Cs]
+9.4 992.8 979.7
З 14 30 км {дождь} 8/6 900 м
[Sc Ac trans]
+10.2 993.7 980.6 0.0
З 8 30 км ясно +5.7 1002.9 989.6 +5.7 +16.4
СЗ 4 30 км 8/4 900 м
[Frnb As trans Cs]
+3.9 1003.9 990.2 +0.7 +6.0
СЗ 5 30 км осадки на расстоянии 8/8 900 м +6.3 990.9 989.4
С 5 10 км осадки на расстоянии 8/4 900 м
[Frnb Ac As Cs]
+7.2 1002.5 988.9
С 9 30 км 8/3 900 м
[Sc Ac und Cs]
+9.6 1001.4 987.8
СЗ 10 30 км 5/3 900 м
[Cu hum Ac und Ci]
+11.4 1000.3 986.8
С 10 30 км 5/3 900 м
[Cu hum Ac trans Ci]
+12.3 999.0 985.6
С 13 30 км 5/3 900 м
[Cu hum Ac trans]
+14.2 997.5 984.2
З 15 30 км ясно +10.9 995.9 982.5 +3.9 +16.0
ЮЗ 4 30 км 9/8 300 м
[St As op Cs]
+2.8 1002.8 989.3 +1.8 +10.9 0.0
ЮЗ 4 20 км осадки на расстоянии 10/6 450 м
[St As trans Cs]
+4.1 1003.7 990.2
Ю 9 15 км осадки на расстоянии туман 6/6 300 м
[Sc diur, vesp As trans Ci fib]
+5.7 1004.7 991.2
Ю 10 6000 м туман местами туман 8/8 300 м
[St As trans Cs]
+5.5 1005.5 992.0
З 8 25 км в посл. час туман туман 8/6 450 м
[Frnb As trans Cs]
+4.0 1006.4 992.8
З 7 25 км осадки на расстоянии {туман} 6/6 450 м
[Cu med, cong As trans Cs]
+6.0 1006.8 993.2
З 9 30 км 6/6 450 м
[Cu med, cong Ac cast Ci fib]
+7.3 1007.1 993.4
З 7 30 км 4/3 1050 м
[St Ac As Cs]
+3.0 1013.2 999.4 +2.8 +9.0
З 12 25 км осадки на расстоянии 9/8 900 м
[Sc diur, vesp As trans Cs]
+6.4 1013.0 999.3 +2.2 +6.4
З 13 25 км осадки на расстоянии 6/6 900 м
[Sc diur, vesp Ac cast Cs]
+7.2 1014.0 1000.2
Ю 17 25 км осадки на расстоянии 8/8 600 м
[Frnb Ac trans Ci fib]
+8.6 1014.8 1001.0
Ю 18 25 км пыльный позёмок 8/8 450 м
[Cu med, cong Ci fib]
+9.8 1014.8 1001.2
Ю 18 30 км 8/8 300 м
[Cu med, cong Ci fib]
+10.0 1015.4 1001.8
Ю 17 25 км осадки на расстоянии туман 8/8 450 м
[Sc diur, vesp Ci fib]
+11.0 1015.7 1002.1
Ю 17 25 км осадки на расстоянии 9/9 450 м
[Sc diur, vesp Ci fib]
+10.5 1016.4 1002.8
Ю 10 20 км осадки на расстоянии 9/8 900 м
[Frnb As trans Cs]
+7.8 1022.0 1008.2 +6.4 +12.0
З 9 20 км пыль 6/3 450 м
[Cu hum Ac As Ci fib]
+2.6 1027.2 1013.3 +1.2 +7.8 0.0
З 12 20 км пыль 6/1 450 м
[Cu hum Ci fib]
+3.8 1027.1 1013.2
З 9 25 км пыль 6/1 450 м
[Cu hum Ci fib]
+5.8 1026.8 1013.0
Ю 8 25 км пыль 6/1 450 м
[Cu hum Ci]
+7.6 1026.4 1012.6
З 8 30 км 6/1 450 м
[Frnb Ci]
+10.1 1025.5 1011.8
З 7 30 км 6/0
[Ac cast Ci]
+11.6 1024.6 1010.9
З 8 30 км 6/0
[Ac cast Ci]
+12.8 1023.9 1010.2
Ю 7 30 км 3/0
[Ac As Cs]
+7.8 1024.1 1010.2 +2.6 +15.0
З 5 25 км пыль 3/0
[Ac cast Ci fib]
+1.6 1023.9 1010.0 +0.7 +8.0
З 5 25 км пыль 3/0
[Ac cast Ci]
+4.6 1023.6 1009.8
З 8 30 км 3/0
[Ac cast Ci]
+6.0 1023.3 1009.4
З 8 30 км 3/0
[Ci sp]
+10.4 1022.9 1009.2
З 10 25 км пыльный позёмок 3/0
[Ci]
+12.8 1022.3 1008.6
З 9 30 км 1/0
[Ci]
+15.2 1021.4 1007.8
З 8 30 км 1/0
[Ci]
+15.7 1020.6 1007.0
З 7 30 км ясно +11.4 1019.3 1005.6 +1.6 +17.5
З 6 30 км 5/0
[Ac trans]
+4.2 1023.7 1010.0 +4.0 +12.3
штиль 0 50 км ?/? +8.8 1011.7 1010.2
З 8 30 км 5/0
[Ac trans Ci]
+9.7 1012.0 1010.5
СЗ 8 30 км 4/0
[Ci]
+10.4 1022.4 1010.6
Ю 6 30 км 4/1 900 м
[Cu hum Ci]
+13.9 1024.3 1010.6
Ю 8 30 км 5/1 900 м
[Cu hum Ac und Ci]
+14.9 1024.2 1010.6
Ю 5 30 км 9/1 900 м
[Cu hum Ac und Ci]
+14.7 1023.9 1010.4
штиль 0 30 км ясно +7.5 1026.2 1012.4 +4.2 +16.0
Местоположение метеостанции Пуэрто-Санта-Крус (Аргентина): широта -50.00 долгота -68.50 высота над уровнем моря 12 м.
В архиве по умолчанию представлена погода в Пуэрто-Санта-Крусе за последнюю неделю. Архивные данные за месяц целиком и за предыдущие месяцы, начиная с января 2011 года, Вы можете получить, выбрав интересующий диапазон дат из раскрывающегося списка и нажав кнопку "Найти!".
*Определитесь, кто Вы:
Внимание! Время в таблицах - всемирное. Для получения местного времени необходимо прибавить поправку, которая равна -3 ч.
Некоторые строки с данными для отдельных станций могут быть выделены курсивом. Это означает, что фактические данные отсутствуют по различным причинам, а приведенные значения являются расчетными модельными данными для данного пункта наблюдений.
Смотрите также архив погоды в соседних городах и на ближайших метеорологических станциях:
Партнеры нашего сайта:      
Пояснения к столбцам:
  • Ветер - указаны скорость ветра в м/с - средняя за 10 мин, порывы в срок и между сроками (в фигурных скобках) и направление, откуда дует ветер: С - северный,
  • СВ - северо-восточный, В - восточный, ЮВ - юго-восточный, Ю - южный, ЮЗ - юго-западный, З - западный, СЗ - северо-западный.
  • Видимость - горизонтальная дальность видимости в метрах или километрах. При видимости от 1 до 10 км при отсутствии осадков обычно наблюдается дымка, при ухудшении видимости до 1 км и менее - туман. В сухую погоду видимость может ухудшаться дымом, пылью или мглою.
  • Явления - указаны атмосферные явления, наблюдавшиеся в срок или в последний час перед сроком; фигурными скобками обозначены явления, наблюдавшиеся между сроками (за 1-3 часа до срока); квадратными скобками обозначены град или гололедные отложения с указанием их диаметра в мм.
  • Облачность - указаны через наклонную черту общая и нижняя облачность в баллах и высота нижней границы облаков в метрах; квадратными скобками обозначены формы облаков: Ci - перистые, Cs - перисто-слоистые, Cc - перисто-кучевые, Ac - высококучевые, As - высокослоистые, Sc - слоисто-кучевые, Ns - слоисто-дождевые, Cu - кучевые, Cb - кучево-дождевые. Подробнее классификацию облаков см. в Атласе облаков (PDF).
  • T - Температура воздуха - температура, измеренная на высоте 2 м над землей.
  • Td - Температура точки росы - температура, при понижении до которой содержащийся в воздухе водяной пар достигнет насыщения.
  • f - Относительная влажность воздуха - влажноcть воздуха, измеренная на высоте 2 м над землей.
  • Te - Эффективная температура - температура, которую ощущает одетый по сезону человек в тени. Характеристика душности погоды. При расчете учитывается влияние влажности воздуха и скорости ветра на теплоощущения человека.
  • Tes - Эффективная температура на солнце - температура, которую ощущает человек, с поправкой на солнечный нагрев. Характеристика знойности погоды. Зависит от высоты солнца над горизонтом, облачности и скорости ветра. Ночью, в пасмурную погоду, а также при ветре 12 м/с и более поправка равна нулю.
  • P - Атмосферное давление - приведенное к уровню моря атмосферное давление.
  • Po - Атмосферное давление - измеренное на уровне метеостанции атмосферное давление.
  • Tmin - Минимальная температура - минимум температуры воздуха на высоте 2 м над землей.
  • Tmax - Максимальная температура - максимум температуры воздуха на высоте 2 м над землей.
  • R - Количество осадков - Количество выпавших осадков за период времени, мм. При наведении курсора мыши на число - период времени, за который выпало указанное количество осадков.
  • R24 - Количество осадков - Количество выпавших осадков за 24 часа, мм.
  • S - Снежный покров - Высота снежного покрова, см. При наведении курсора мыши на число - состояние снежного покрова и степень покрытия местности в баллах.